• Processing (Info)

  • MPEC 2024-P146 : 2024 PU3

    The following Minor Planet Electronic Circular may be linked-to from your own Web pages, but must not otherwise be redistributed electronically.

    A form allowing access to any MPEC is at the bottom of this page.


    Read MPEC 2024-P145 Read MPEC 2024-P147


    M.P.E.C. 2024-P146                              Issued 2024 August 12, 21:26 UT
    
         The Minor Planet Electronic Circulars contain information on unusual
             minor planets, routine data on comets and natural satellites,
             and occasional editorial announcements.  They are published
        on behalf of Division F of the International Astronomical Union by the
              Minor Planet Center, Smithsonian Astrophysical Observatory,
                              Cambridge, MA 02138, U.S.A.
    			  
                 Prepared using the Tamkin Foundation Computer Network
    
                                  MPC@CFA.HARVARD.EDU
                URL https://www.minorplanetcenter.net/    ISSN 1523-6714
    
                                    2024 PU3                                 
    
    
    Observations:
         K24P03U*KC2024 08 11.84016 21 21 00.03 +01 59 45.6          19.2 GXEP146L51
         K24P03U KC2024 08 11.84126 21 21 02.61 +01 59 14.2          19.2 GXEP146L51
         K24P03U KC2024 08 11.84228 21 21 04.92 +01 58 44.9          19.0 GXEP146L51
         K24P03U KC2024 08 11.87488 21 22 18.51 +01 43 24.9          19.6 GXEP146L51
         K24P03U KC2024 08 11.87672 21 22 22.58 +01 42 34.3          19.6 GXEP146L51
         K24P03U KC2024 08 11.87860 21 22 26.82 +01 41 40.8          19.8 GXEP146L51
         K24P03U KB2024 08 11.89781821 23 19.48 +01 32 45.9          19.7 GXEP146I93
         K24P03U KC2024 08 11.90043421 23 24.173+01 31 02.86         19.0 GVEP146J95
         K24P03U KB2024 08 11.90121321 23 27.02 +01 31 13.3          19.8 GXEP146I93
         K24P03U KB2024 08 11.90457021 23 34.39 +01 29 40.7          20.0 GXEP146I93
         K24P03U hC2024 08 11.90466921 23 33.619+01 29 06.65         20.0 GVEP146J95
         K24P03U hC2024 08 11.90779221 23 40.466+01 27 41.18         19.8 GVEP146J95
         K24P03U KC2024 08 11.91243821 23 47.61 +01 26 02.7          19.7 GXEP146L01
         K24P03U KC2024 08 11.91522321 23 53.64 +01 24 46.6          20.1 GXEP146L01
         K24P03U KC2024 08 11.91914421 24 02.18 +01 23 00.4          19.6 GXEP146L01
         K24P03U KC2024 08 11.91982 21 24 01.84 +01 22 23.6          19.5 GXEP146G02
         K24P03U KC2024 08 11.92296021 24 10.48 +01 21 16.5          19.9 GXEP146L01
         K24P03U KC2024 08 11.92527 21 24 13.67 +01 19 55.8          19.5 GXEP146G02
         K24P03U KC2024 08 11.93085 21 24 25.81 +01 17 24.4          19.7 GXEP146G02
         K24P03U KC2024 08 12.04330221 28 26.494+00 28 15.67         19.8 GVEP146J95
         K24P03U KC2024 08 12.05019421 28 40.438+00 25 21.40         20.2 GVEP146J95
         K24P03U KC2024 08 12.05468321 28 49.462+00 23 29.51         19.9 GVEP146J95
         K24P03U KC2024 08 12.18704121 33 33.78 -00 28 29.6          19.6 GXEP146858
         K24P03U KC2024 08 12.19163021 33 42.26 -00 30 15.9          20.0 GXEP146858
         K24P03U KC2024 08 12.19621821 33 50.64 -00 32 01.9          20.0 GXEP146858
         K24P03U KC2024 08 12.19859621 33 49.26 -00 33 18.4          20.6 GVEP146H21
         K24P03U KC2024 08 12.20052421 33 52.77 -00 34 02.8          20.8 GVEP146H21
         K24P03U KC2024 08 12.20245321 33 56.25 -00 34 47.0          20.6 GVEP146H21
         K24P03U KC2024 08 12.20438221 33 59.75 -00 35 31.1          20.3 GVEP146H21
         K24P03U KC2024 08 12.20727521 34 04.97 -00 36 37.5          20.3 GVEP146H21
         K24P03U KC2024 08 12.87821 21 51 57.16 -04 10 11.1          19.5 GXEP146L51
         K24P03U KC2024 08 12.88034 21 51 59.82 -04 10 44.4          19.7 GXEP146L51
         K24P03U KC2024 08 12.88263 21 52 02.61 -04 11 20.9          19.7 GXEP146L51
    
    Observer details:
    858 Tebbutt Observatory, Edgewood.  Observer F. B. Zoltowski.  0.51-m f/8.1
        Schmidt-Cassegrain + CCD.
    G02 KYSUCE Observatory, Kysucke Nove Mesto.  Observer M. Urbanik.  0.40-m
        f/6.8 Corrected Dall-Kirkham + CCD.
    H21 Astronomical Research Observatory, Westfield.  Observer R. Holmes.
        Measurers T. Linder, R. Holmes.  0.76-m f/3.0 astrograph + CCD.
    I93 St Pardon de Conques.  Observer F. Losse.  0.40-m f/3.7 reflector + CMO.
    J95 Great Shefford.  Observer P. Birtwhistle.  0.41-m f/6.3 Schmidt-Cassegrain
        + CCD.
    L01 Visnjan Observatory, Tican.  Observers K. Korlevic, L. Ivanovic, E.
        Matika, I. Novotny, I. Paleka, E. Pettarin, L. Poropat, M. Spoler.
        Measurer M. Spoler.  1.0-m f/2.9 reflector + CCD.
    L51 MARGO, Nauchnyi.  Observer G. Borisov.  0.50-m f/1.9 reflector + CCD.
    
    Orbital elements:
    2024 PU3                                                 Earth MOID = 0.0118 AU
    Epoch 2024 Oct. 17.0 TT = JDT 2460600.5                 MPC                     
    M  20.93590              (2000.0)            P               Q                  
    n   0.20430429     Peri.  126.14319     -0.01420124     +0.99804409             
    a   2.8550763      Node   142.90059     -0.94675709     +0.00616342             
    e   0.6911213      Incl.    5.79259     -0.32163541     -0.06220934             
    P   4.82           H   27.28          G   0.15           U   8                  
    Residuals in seconds of arc
    240811 L51  0.6+  1.3-    240811 J95  0.5-  0.3+    240812 858  0.1-  0.2-
    240811 L51  1.5+  1.3-    240811 L01  0.2+  0.4-    240812 858  0.3+  0.1-
    240811 L51  1.2+  1.5-    240811 L01  0.4-  0.4-    240812 858  0.4-  0.0
    240811 L51  0.7+  0.4-    240811 L01  0.2-  0.3+    240812 H21  0.1+  0.1-
    240811 L51  0.2+  0.4+    240811 G02  0.5-  0.5+    240812 H21  0.2+  0.1-
    240811 L51  1.0+  0.6-    240811 L01  0.1+  0.1+    240812 H21  0.1-  0.1+
    240811 I93 (0.2+  1.1-)   240811 G02  0.8-  0.8+    240812 H21  0.0   0.3+
    240811 J95  0.1+  0.0     240811 G02  0.0   0.4+    240812 H21  0.3-  0.3+
    240811 I93  0.5+  0.2-    240812 J95  0.1+  0.2-    240812 L51  0.5+  0.1+
    240811 I93  0.2-  0.6-    240812 J95  0.6+  0.8-    240812 L51  0.5+  0.5+
    240811 J95  0.6+  0.1+    240812 J95  0.5+  0.1+    240812 L51  0.4-  0.1+
    
    Ephemeris:
    2024 PU3                 a,e,i = 2.86, 0.69, 6                   q = 0.8819
    Date    TT    R. A. (2000) Decl.     Delta      r    Elong.  Phase     V
    2024 07 13    11 12 37.5 +21 14 20   0.2407  0.8870    51.5   116.2    28.5
    ...
    2024 07 28    11 37 31.3 +23 00 23   0.1096  0.9395    43.8   131.5    28.2
    ...
    2024 08 05    12 22 44.9 +28 30 32   0.04223 0.9865    47.6   130.6    26.1
    ...
    2024 08 11    20 35 41.1 +10 50 56   0.01698 1.0284   151.3    28.3    19.7
    2024 08 12    21 26 55.4 +00 51 53   0.02342 1.0359   164.1    15.5    20.1
    2024 08 13    21 54 29.6 -04 37 28   0.03092 1.0435   168.4    11.2    20.5
    ...
    2024 08 19    22 43 59.8 -14 05 08   0.08090 1.0912   167.7    11.4    22.7
    ...
    2024 08 27    22 56 51.6 -16 30 06   0.1516  1.1598   169.6     9.1    24.1
    ...
    2024 09 11    23 01 59.1 -17 15 36   0.2977  1.2983   166.8    10.2    25.9
    
    A. U. Tomatic                (C) Copyright 2024 MPC           M.P.E.C. 2024-P146
    


    Read MPEC 2024-P145 Read MPEC 2024-P147


    MPEC number:

    Enter an MPEC number in one of the following forms:

    • 1997-B01 (the full form)
    • J97B01 (the packed version of the full form)
    • B01 (the abbreviated form)